Regional Weather Roundup
Issued by NWS

Home | Current Version | Previous Version | Graphics & Text | Print | Product List | Glossary On
Versions: 1 2 3 4 5 6 7 8 9 10 11 12 13 14 15 16 17 18 19 20 21 22 23 24 25 26 27 28 29 30 31 32 33 34 35 36 37 38 39 40 41 42 43 44 45 46 47 48 49 50
000
ASUS43 KDTX 161910
RWRMI
MICHIGAN HOURLY REGIONAL WEATHER ROUNDUP
NATIONAL WEATHER SERVICE DETROIT/PONTIAC MI
200 PM EST SAT DEC 16 2017

NOTE: "FAIR" INDICATES FEW OR NO CLOUDS BELOW 12,000 FEET WITH NO
SIGNIFICANT WEATHER AND/OR OBSTRUCTION TO VISIBILITY.

MIZ047>049-052>055-059>063-066>070-074>076-081>083-162000-
SOUTHEAST LOWER MICHIGAN

CITY           SKY/WX    TMP DP  RH WIND       PRES   REMARKS
ADRIAN         CLOUDY    37  27  67 SW8       29.96S WCI  31
ALMA           CLOUDY    24  21  89 NE8       30.01R WCI  15
ANN ARBOR      CLOUDY    37  28  70 CALM      29.95F
BAD AXE        CLOUDY    25  19  78 NE10      30.02R WCI  15
CARO           CLOUDY    24  20  85 N3        30.01S
DETROIT CITY   CLOUDY    27  22  81 NE8       30.00S WCI  19
DETROIT        CLOUDY    32  25  75 NE12      29.99R HAZE    WCI  23
FLINT          CLOUDY    24  19  81 E10       29.99S WCI  14
GROSSE ILE     CLOUDY    30  27  88 NE10      29.97F WCI  21
HILLSDALE      CLOUDY    39  27  60 W3        29.91F
HOWELL         CLOUDY    28  25  86 E8        29.96F WCI  20

CITY           SKY/WX    TMP DP  RH WIND       PRES   REMARKS
JACKSON        CLOUDY    38  25  59 W7        29.93F WCI  33
LAMBERTVILLE   PTSUNNY   38  28  64 W7        29.96S WCI  33
LANSING        CLOUDY    27  22  81 E8        29.97S WCI  19
LAPEER         CLOUDY    25  19  78 NE3       30.00S
MASON          CLOUDY    29  22  76 E6        29.95F WCI  23
MONROE         CLOUDY    38  26  63 W6        29.96S WCI  33
MT. CLEMENS    FLURRIES  26  23  86 NE3       29.99R
PONTIAC        CLOUDY    25  21  85 E5        29.97R WCI  19
PORT HOPE        N/A     25  19  78 N12       30.03R WCI  14
PORT HURON     CLOUDY    25  18  74 N5        30.00S WCI  19
TRI CITIES     CLOUDY    24  20  84 E9        30.02S WCI  14
MIDLAND        CLOUDY    24  19  83 NE8       30.01S WCI  15
TROY           CLOUDY    27  22  80 NE7       30.01S WCI  20
SAGINAW HB     CLOUDY    23  21  93 NE5       30.02R WCI  17
$$
MIZ043>046-050>051-056>058-064>065-071>073-077>080-162000-
SOUTHWEST LOWER MICHIGAN

CITY           SKY/WX    TMP DP  RH WIND       PRES   REMARKS
BATTLE CREEK   SUNNY     38  27  64 S5        29.92F WCI  34
BENTON HARBOR  SUNNY     40  26  57 SW13      29.92S WCI  32
BIG RAPIDS     CLOUDY    23  18  82 E8        29.96S WCI  14
COLDWATER      SUNNY     38  26  63 SW7       29.93S WCI  32
HOLLAND        CLOUDY    29  23  78 E10       29.94R WCI  20
GRAND RAPIDS   CLOUDY    26  22  84 E14       29.95R WCI  14
IONIA          CLOUDY    26  21  82 NE9       29.96R WCI  16
KALAMAZOO      SUNNY     38  26  62 S3        29.93R
LUDINGTON      CLOUDY    26  18  73 E9        29.95F WCI  16
MARSHALL       MOSUNNY   40  26  57 CALM      29.92S
MOUNT PLEASANT CLOUDY    25  18  76 E7        29.99S WCI  17
MUSKEGON       CLOUDY    29  21  72 E14       29.94S WCI  18
SOUTH HAVEN    SUNNY     41  29  63 SW7       29.92R
$$
MIZ016>042-162000-
NORTHERN LOWER MICHIGAN

CITY           SKY/WX    TMP DP  RH WIND       PRES   REMARKS
ALPENA         CLOUDY    14   9  80 N9        30.08R WCI   2
BEAVER ISLAND  FLURRIES  15  10  83 E10G16    30.06S WCI   2
BELLAIRE       MOSUNNY   20  13  76 NE6       30.04F WCI  12
CADILLAC       CLOUDY    21  16  79 SE9       29.95S WCI  11
CHARLEVOIX     CLOUDY    16  10  77 E9        30.08S WCI   4
FRANKFORT      CLOUDY    28  17  64 E6        29.98F WCI  21
GAYLORD        LGT SNOW  14   8  77 NE6       29.99R WCI   5
GRAYLING       CLOUDY    17  10  74 NE9       30.01R WCI   6
HARBOR SPRINGS CLOUDY    13   7  76 NE12      30.05F WCI  -1
HOUGHTON LAKE  CLOUDY    21  12  68 NE7       30.00R WCI  12
MANISTEE       CLOUDY    27  19  72 E13       29.96S WCI  16
OSCODA         CLOUDY    20  11  70 NE12      30.04R WCI   7
PELLSTON       LGT SNOW  12   7  80 E8        30.08S WCI   0
ROGERS CITY    FLURRIES  13   8  83 N5        30.10R WCI   5
TRAVERSE CITY  CLOUDY    23  14  68 E8        30.01R WCI  14
$$
MIZ007>008-015-162000-
EASTERN UPPER MICHIGAN

CITY           SKY/WX    TMP DP  RH WIND       PRES   REMARKS
KINROSS        CLOUDY     5  -8  55 NE9       30.09F WCI  -9
MACKINAC ISLAN CLOUDY     9   1  69 NE7       30.08F WCI  -2
NEWBERRY       PTSUNNY    9   6  87 NE8       30.06R WCI  -3
S. S. MARIE    MOSUNNY    4  -9  55 E3        30.11S
MUNISING         N/A     19  12  74 E3        30.05R
$$
MIZ004>006-011>014-085-162000-
CENTRAL UPPER MICHIGAN

CITY           SKY/WX    TMP DP  RH WIND       PRES   REMARKS
MANISTIQUE     PTSUNNY   15   4  62 NE7       30.05R WCI   6
ESCANABA       FLURRIES  19  12  74 NE7       30.05R WCI  10
MENOMINEE      FLURRIES  25  20  81 NE13G18   30.01R WCI  14
SAWYER-GWINN   MOSUNNY   16  10  79 CALM      29.99S
$$
MIZ001>003-009>011-084-162000-
WESTERN UPPER MICHIGAN

CITY           SKY/WX    TMP DP  RH WIND       PRES   REMARKS
IRON MOUNTAIN  CLOUDY    19   9  65 NE6       29.98R WCI  11
HOUGHTON       LGT SNOW  18  11  74 NE8       30.00S WCI   8
COPPER HARBOR    N/A     20  13  74 SE8       30.05S WCI  10
IRONWOOD       CLOUDY    20  10  65 SE5       29.96R WCI  13
$$

ABBREVIATIONS USED IN REMARKS
   TC - TEMPERATURE IN CELSIUS
  WCI - WIND CHILL INDEX
   HX - HEAT INDEX
  VSB - VISIBILITY




USA.gov is the U.S. government's official web portal to all federal, state and local government web resources and services.